Flag for Germany Weather past 2 weeks in Wittenberg, Saxony-Anhalt, Germany

Now
61 °F

Partly cloudy.


Feels Like: 61 °F
Forecast: 54 / 67 °F
Wind: 5 mph from South

Location: Holzdorf

Current Time: Aug 22, 2014 at 11:40:05 PM

Latest Report: Aug 22, 2014 at 10:20 PM


Visibility: N/A

Pressure: 29.89 "Hg

Humidity: 52%

Dew point: 43 °F

Location of WittenbergLocation

Historic Weather in Wittenberg — Graph

°F

Wittenberg temperature yesterday

Maximum temperature yesterday: 68 °F (at 4:20 PM)
Minimum temperature yesterday: 41 °F (at 6:20 AM)
Average temperature yesterday: 56 °F

Past Weeks' High & Low Weather Summary

 TemperatureHumidityPressure
High86 °F (Aug 10, 4:20 PM)100% (Aug 8, 2:20 AM)30.01 "Hg (Aug 8, 2:20 AM)
Low41 °F (Aug 21, 6:20 AM)31% (Aug 22, 3:20 PM)29.65 "Hg (Aug 13, 4:20 PM)
Average63 °F69%29.87 "Hg
* Reported Aug 7 10:20 PM — Aug 22 10:20 PM, Wittenberg, Weather by CustomWeather, © 2014

Note: Actual official high and low records may vary slightly from our data, if they occured in-between our weather recording intervals... More about our weather records

Advertising

Wittenberg weather history for previous 24 hours

 ConditionsComfort  
Time TempWeatherWind HumidityBarometerVisibility
10:20 PM
Aug 22
61 °FPartly cloudy.5 mph52%29.89 "HgN/A
9:20 PM59 °FPassing clouds.1 mph55%29.89 "HgN/A
8:20 PM61 °FPartly sunny.2 mph52%29.89 "HgN/A
7:20 PM68 °FBroken clouds.10 mph38%29.89 "HgN/A
6:20 PM70 °FBroken clouds.8 mph33%29.89 "HgN/A
5:20 PM70 °FPartly sunny.9 mph33%29.89 "HgN/A
4:20 PM72 °FPartly sunny.10 mph31%29.89 "HgN/A
3:20 PM70 °FBroken clouds.16 mph31%29.92 "HgN/A
2:20 PM70 °FBroken clouds.14 mph33%29.92 "HgN/A
1:20 PM68 °FBroken clouds.10 mph40%29.92 "HgN/A
12:20 PM68 °FBroken clouds.12 mph40%29.95 "HgN/A
12:00 PM66 °FBroken clouds.12 mph43%29.95 "HgN/A
11:20 AM68 °FPartly sunny.7 mph43%29.95 "HgN/A
10:20 AM64 °FPartly sunny.8 mph52%29.95 "HgN/A
9:20 AM61 °FPartly sunny.7 mph59%29.95 "HgN/A
8:20 AM54 °FPartly sunny.3 mph77%29.95 "HgN/A
7:20 AM50 °FPartly sunny.3 mph88%29.98 "HgN/A
6:20 AM46 °FFog.2 mph93%29.95 "HgN/A
5:20 AM50 °FPassing clouds.3 mph88%29.95 "HgN/A
4:20 AM50 °FPassing clouds.2 mph88%29.98 "HgN/A
3:20 AM48 °FPartly cloudy.3 mph87%29.98 "HgN/A
2:20 AM48 °FPassing clouds.2 mph87%29.98 "HgN/A
1:20 AM46 °FPassing clouds.2 mph87%30.01 "HgN/A
12:20 AM45 °FPassing clouds.2 mph87%30.01 "HgN/A
11:20 PM
Aug 21
46 °FPassing clouds.1 mph93%30.01 "HgN/A
Weather by CustomWeather, © 2014

See weather overviewHow to use our weather pages